Weather History for KONL - May, 2014

Change the Weather History Date:

Monday, May 12, 2014

  Actual Average Record
Temperature  
Mean Temperature 42 °F -  
Max Temperature 45 °F 70 °F 85 °F (1991)
Min Temperature 39 °F 44 °F 28 °F (1953)
Degree Days  
Heating Degree Days 23    
Moisture  
Dew Point 38 °F    
Average Humidity 82    
Maximum Humidity 89    
Minimum Humidity 62    
Precipitation  
Precipitation 0.15 in - - ()
Sea Level Pressure  
Sea Level Pressure 29.98 in    
Wind  
Wind Speed 23 mph (NNW)    
Max Wind Speed 37 mph    
Max Gust Speed 44 mph    
Visibility 9 miles    
Events Rain    
Averages and records for this station are not official NWS values.
T = Trace of Precipitation, MM = Missing Value Source: NWS Daily Summary

Daily Weather History Graph

Daily Weather History Graph

Search for Another Location

Airport or City:

Trip Planner

Search our weather history database for the weather conditions in past years. The results will help you decide how hot, cold, wet, or windy it might be!

Date:

Astronomy

May. 12, 2014 Rise Set
Actual Time 6:16 AM CDT 8:46 PM CDT
Civil Twilight 5:44 AM CDT 9:18 PM CDT
Nautical Twilight 5:04 AM CDT 9:58 PM CDT
Astronomical Twilight 4:19 AM CDT 10:43 PM CDT
Moon 6:43 PM CDT (5/12) 4:59 AM CDT (5/12)
Length of Visible Light 15h 34m
Length of Day
14h 30m
Waxing Gibbous, 95% of the Moon is Illuminated
May 12
Waxing Gibbous
May 14
Full
May 21
Last Quarter
May 28
New
Jun 5
First Quarter

Hourly Weather History & Observations

Time (CDT) Temp. Windchill Dew Point Humidity Pressure Visibility Wind Dir Wind Speed Gust Speed Precip Events Conditions
12:15 AM 45.7 °F 37.4 °F 42.3 °F 88% 29.87 in 10.0 mi NNW 23.0 mph 29.9 mph N/A   Overcast
12:35 AM 45.7 °F 37.4 °F 42.1 °F 87% 29.90 in 10.0 mi NNW 23.0 mph 31.1 mph N/A   Overcast
12:55 AM 45.5 °F 36.9 °F 41.9 °F 87% 29.88 in 10.0 mi NNW 24.2 mph 29.9 mph N/A   Overcast
1:15 AM 45.5 °F 37.3 °F 41.9 °F 87% 29.88 in 10.0 mi North 21.9 mph 32.2 mph N/A   Overcast
1:35 AM 45.1 °F 36.2 °F 41.7 °F 88% 29.88 in 10.0 mi NNW 25.3 mph 33.4 mph N/A   Overcast
1:55 AM 45.5 °F 38.9 °F 41.9 °F 87% 29.92 in 10.0 mi NNW 15.0 mph 29.9 mph N/A   Overcast
2:15 AM 45.0 °F 36.2 °F 41.5 °F 88% 29.81 in 10.0 mi North 24.2 mph 31.1 mph N/A Rain Light Rain
2:35 AM 44.8 °F 35.9 °F 41.5 °F 88% 29.85 in 10.0 mi NNW 24.2 mph 29.9 mph N/A Rain Light Rain
2:55 AM 44.6 °F 36.1 °F 41.4 °F 88% 29.85 in 10.0 mi NNW 21.9 mph 29.9 mph N/A   Overcast
3:15 AM 44.6 °F 35.7 °F 41.2 °F 88% 29.85 in 10.0 mi NNW 24.2 mph 34.5 mph N/A   Overcast
3:35 AM 44.1 °F 35.2 °F 41.0 °F 89% 29.84 in 10.0 mi NNW 23.0 mph 38.0 mph N/A   Overcast
3:55 AM 43.9 °F 34.5 °F 40.6 °F 88% 29.87 in 10.0 mi NNW 25.3 mph 33.4 mph N/A   Overcast
4:15 AM 43.7 °F 34.1 °F 40.1 °F 87% 29.86 in 10.0 mi NNW 26.5 mph 33.4 mph N/A   Overcast
4:35 AM 43.2 °F 33.0 °F 40.1 °F 89% 29.83 in 10.0 mi North 28.8 mph 36.8 mph N/A   Light Drizzle
4:55 AM 43.2 °F 34.0 °F 39.9 °F 88% 29.85 in 10.0 mi NNW 23.0 mph 29.9 mph N/A Rain Light Rain
5:15 AM 42.8 °F 32.5 °F 39.6 °F 88% 29.85 in 10.0 mi NNW 28.8 mph 33.4 mph N/A   Overcast
5:35 AM 42.4 °F 32.6 °F 39.0 °F 88% 29.87 in 10.0 mi NNW 25.3 mph 32.2 mph N/A   Overcast
5:55 AM 42.3 °F 32.8 °F 39.0 °F 88% 29.90 in 10.0 mi NNW 23.0 mph 31.1 mph N/A   Overcast
6:15 AM 41.7 °F 31.9 °F 38.5 °F 88% 29.88 in 10.0 mi NNW 24.2 mph 35.7 mph 0.01 in Rain Light Rain
6:35 AM 41.5 °F 31.6 °F 38.3 °F 88% 29.88 in 10.0 mi NNW 24.2 mph 31.1 mph 0.01 in   Light Drizzle
6:55 AM 41.4 °F 31.4 °F 38.1 °F 88% 29.88 in 10.0 mi NNW 24.2 mph 32.2 mph 0.01 in   Overcast
7:15 AM 41.4 °F 32.1 °F 37.8 °F 87% 29.89 in 10.0 mi NNW 20.7 mph 28.8 mph N/A   Overcast
7:35 AM 41.4 °F 32.7 °F 37.9 °F 88% 29.93 in 10.0 mi NNW 18.4 mph 23.0 mph N/A Rain Light Rain
7:55 AM 41.2 °F 33.0 °F 37.8 °F 88% 29.93 in 10.0 mi NNW 16.1 mph 27.6 mph 0.01 in Rain Rain
8:15 AM 41.2 °F 32.4 °F 37.9 °F 88% 29.91 in 5.0 mi NNW 18.4 mph 25.3 mph 0.03 in   Unknown
8:35 AM 41.5 °F 31.9 °F 38.3 °F 88% 29.91 in 7.0 mi NNW 23.0 mph - 0.05 in Rain Light Rain
8:55 AM 41.0 °F 31.9 °F 37.4 °F 87% 29.92 in 10.0 mi NNW 19.6 mph 28.8 mph N/A   Overcast
9:15 AM 41.7 °F 32.6 °F 37.9 °F 86% 29.93 in 10.0 mi NNW 20.7 mph 29.9 mph N/A   Overcast
9:35 AM 41.9 °F 32.6 °F 37.9 °F 86% 29.92 in 10.0 mi NNW 21.9 mph 29.9 mph N/A Rain Light Rain
9:55 AM 41.5 °F 31.6 °F 37.9 °F 87% 29.93 in 10.0 mi NNW 24.2 mph 27.6 mph 0.01 in Rain Light Rain
10:15 AM 41.9 °F 32.3 °F 38.3 °F 87% 29.93 in 10.0 mi NNW 23.0 mph 27.6 mph 0.01 in Rain Light Rain
10:35 AM 41.9 °F 32.1 °F 37.8 °F 85% 29.95 in 10.0 mi NW 24.2 mph 29.9 mph 0.01 in   Light Drizzle
10:55 AM 41.4 °F 31.6 °F 37.4 °F 86% 29.96 in 10.0 mi NNW 23.0 mph 32.2 mph 0.01 in   Light Drizzle
11:15 AM 41.5 °F 31.9 °F 37.4 °F 85% 29.97 in 10.0 mi NW 23.0 mph 31.1 mph N/A   Light Drizzle
11:35 AM 41.7 °F 32.6 °F 37.6 °F 85% 29.98 in 10.0 mi NNW 20.7 mph 32.2 mph N/A   Light Drizzle
11:55 AM 41.5 °F 31.4 °F 37.8 °F 86% 29.98 in 10.0 mi NW 25.3 mph 32.2 mph 0.01 in Rain Light Rain
12:15 PM 41.2 °F 31.4 °F 37.2 °F 86% 29.99 in 7.0 mi NW 23.0 mph 31.1 mph N/A Rain Rain
12:35 PM 40.6 °F 30.7 °F 37.0 °F 87% 30.01 in 5.0 mi NW 23.0 mph 31.1 mph 0.02 in Rain Light Rain
12:55 PM 40.3 °F 29.3 °F 36.5 °F 86% 30.01 in 5.0 mi NW 27.6 mph 34.5 mph 0.02 in   Light Drizzle
1:15 PM 39.9 °F 29.0 °F 36.0 °F 86% 30.01 in 7.0 mi NW 26.5 mph 35.7 mph N/A   Light Drizzle
1:35 PM 39.6 °F 28.5 °F 35.8 °F 86% 30.02 in 5.0 mi NW 26.5 mph 34.5 mph 0.01 in Rain Light Rain
1:55 PM 39.2 °F 27.0 °F 35.2 °F 86% 30.02 in 5.0 mi NW 32.2 mph 38.0 mph 0.02 in Rain Light Rain
2:35 PM 40.1 °F 28.4 °F 36.0 °F 85% 30.03 in 10.0 mi NW 31.1 mph 40.3 mph 0.01 in   Light Drizzle
2:55 PM 40.5 °F 28.9 °F 36.1 °F 85% 30.04 in 7.0 mi NW 31.1 mph 41.4 mph 0.01 in   Overcast
3:15 PM 40.6 °F 29.8 °F 36.1 °F 84% 30.05 in 10.0 mi NNW 27.6 mph 41.4 mph N/A   Light Drizzle
3:35 PM 40.5 °F 28.6 °F 35.8 °F 83% 30.06 in 10.0 mi NNW 33.4 mph 42.6 mph N/A   Overcast
3:55 PM 41.0 °F 30.0 °F 36.3 °F 83% 30.05 in 10.0 mi NNW 28.8 mph 40.3 mph N/A   Overcast
4:15 PM 40.6 °F 29.8 °F 35.8 °F 83% 30.05 in 7.0 mi NW 27.6 mph 43.7 mph N/A   Overcast
4:35 PM 40.3 °F 29.3 °F 35.8 °F 84% 30.06 in 7.0 mi NW 27.6 mph 41.4 mph N/A Rain Light Rain
4:55 PM 41.0 °F 30.5 °F 36.0 °F 82% 30.06 in 10.0 mi NNW 26.5 mph 35.7 mph N/A   Light Drizzle
5:15 PM 41.9 °F 32.8 °F 36.7 °F 82% 30.06 in 10.0 mi NW 20.7 mph 26.5 mph N/A   Light Drizzle
5:35 PM 43.2 °F 31.8 °F 36.1 °F 76% 30.07 in 10.0 mi NW 36.8 mph 43.7 mph N/A   Light Drizzle
5:55 PM 43.7 °F 33.3 °F 36.7 °F 76% 30.07 in 10.0 mi NNW 31.1 mph 42.6 mph N/A Rain Light Rain
6:15 PM 44.8 °F 35.9 °F 37.0 °F 74% 30.06 in 10.0 mi NNW 24.2 mph 39.1 mph N/A   Overcast
6:35 PM 45.0 °F 36.0 °F 36.9 °F 73% 30.06 in 10.0 mi NNW 25.3 mph 35.7 mph N/A   Mostly Cloudy
6:55 PM 45.0 °F 37.1 °F 36.5 °F 72% 30.05 in 10.0 mi NNW 19.6 mph 26.5 mph N/A   Overcast
7:15 PM 44.8 °F 36.9 °F 36.1 °F 72% 30.06 in 10.0 mi NNW 19.6 mph 25.3 mph N/A   Overcast
7:35 PM 45.0 °F 38.5 °F 36.7 °F 73% 30.06 in 10.0 mi NNW 13.8 mph - N/A   Overcast
7:55 PM 45.0 °F 38.9 °F 37.2 °F 74% 30.07 in 10.0 mi NNW 12.7 mph - N/A   Overcast
8:15 PM 45.7 °F 38.6 °F 36.7 °F 71% 30.08 in 10.0 mi NW 17.3 mph 21.9 mph N/A   Overcast
8:35 PM 45.7 °F 39.5 °F 36.9 °F 71% 30.09 in 10.0 mi NNW 13.8 mph - N/A   Overcast
8:55 PM 45.9 °F 40.8 °F 36.7 °F 70% 30.11 in 10.0 mi NNW 10.4 mph - N/A   Overcast
9:15 PM 45.5 °F 41.3 °F 36.9 °F 72% 30.11 in 10.0 mi NNW 8.1 mph - N/A   Overcast
9:35 PM 45.9 °F 40.0 °F 35.4 °F 67% 30.12 in 10.0 mi NW 12.7 mph - N/A   Overcast
9:55 PM 45.9 °F 39.1 °F 33.6 °F 62% 30.13 in 10.0 mi NW 16.1 mph - N/A   Overcast
10:15 PM 45.5 °F 39.2 °F 33.1 °F 62% 30.13 in 10.0 mi NW 13.8 mph - N/A   Overcast
10:35 PM 45.0 °F 38.5 °F 33.4 °F 64% 30.15 in 10.0 mi NW 13.8 mph - N/A   Overcast
10:55 PM 45.1 °F 38.1 °F 33.4 °F 64% 30.14 in 10.0 mi NW 16.1 mph - N/A   Overcast
11:15 PM 45.0 °F 38.5 °F 33.3 °F 64% 30.15 in 10.0 mi NW 13.8 mph - N/A   Overcast
11:35 PM 44.6 °F 38.8 °F 33.8 °F 66% 30.15 in 10.0 mi NW 11.5 mph - N/A   Overcast
11:55 PM 43.0 °F 36.4 °F 33.1 °F 68% 30.15 in 10.0 mi NW 12.7 mph - N/A   Scattered Clouds